Ste-Foy-Tarentaise, France 16 day weather forecast

Slopes altitude range 1550 m - 2620m

Number of lifts: 7 Pistes: 32km

In some cases the lift and piste totals shown are for the ski domain (e.g. Three Valleys) rather than individual resort (e.g. Courchevel)

Overview

The 16 day weather forecast is fully updated 4 times every day.

    • Sun 17 FEB 2019
    • Sun 17
    • -10C 0C
    • Mon 18 FEB 2019
    • Mon 18
    • -10C -1C
    • Tue 19 FEB 2019
    • Tue 19
    • -12C -3C
    • Wed 20 FEB 2019
    • Wed 20
    • -12C -2C
    • Thu 21 FEB 2019
    • Thu 21
    • -10C -1C
    • Fri 22 FEB 2019
    • Fri 22
    • -8C 0C
    • Sat 23 FEB 2019
    • Sat 23
    • -8C -2C
    • Sun 24 FEB 2019
    • Sun 24
    • -8C 0C
    • Mon 25 FEB 2019
    • Mon 25
    • -3C 4C
    • Tue 26 FEB 2019
    • Tue 26
    • -2C 6C
    • Wed 27 FEB 2019
    • Wed 27
    • -1C 5C
    • Thu 28 FEB 2019
    • Thu 28
    • -2C 5C
    • Fri 01 MAR 2019
    • Fri 01
    • -1C 5C
    • Sat 02 MAR 2019
    • Sat 02
    • -2C 4C
    • Sun 03 MAR 2019
    • Sun 03
    • -1C 4C
    • Mon 04 MAR 2019
    • Mon 04
    • -2C 4C

Date:

Time Type 0°C level Temp Chill Snow Cloud Speed Gust Dir Press
12:00 2666m 0°C 0_5 0cm 26% 5mph 5mph 1026mB
15:00 2546m 0°C 0_4 0cm 62% 4mph 4mph 1025mB
18:00 1344m 0°C 0_4 0cm 31% 4mph 5mph 1026mB
21:00 1283m -9°C -9_6 0cm 1% 6mph 6mph 1027mB
0:00 1272m -9°C -9_6 0cm 26% 6mph 6mph 1027mB
3:00 1194m -9°C -9_5 0cm 58% 5mph 5mph 1026mB
6:00 1118m -10°C -10_5 0cm 56% 5mph 6mph 1026mB
9:00 2038m -10°C -10_5 0cm 0% 5mph 6mph 1025mB
12:00 2392m -1°C -1_5 0cm 0% 5mph 6mph 1023mB
15:00 2326m -1°C -1_4 0cm 43% 4mph 5mph 1022mB
18:00 1259m -1°C -1_4 0cm 70% 4mph 5mph 1024mB
21:00 1117m -10°C -10_3 0cm 88% 3mph 4mph 1025mB
0:00 1032m -10°C -10_2 0cm 91% 2mph 3mph 1025mB
3:00 875m -11°C -11_1 0cm 99% 1mph 2mph 1024mB
6:00 739m -12°C -12_2 0cm 98% 2mph 2mph 1025mB
9:00 1817m -12°C -12_2 0cm 98% 2mph 2mph 1024mB
12:00 2162m -3°C -3_4 0cm 98% 4mph 4mph 1023mB
15:00 2070m -3°C -3_4 0cm 89% 4mph 5mph 1021mB
18:00 997m -3°C -3_2 0cm 68% 2mph 3mph 1023mB
21:00 870m -11°C -11_0 0cm 2% 0mph 2mph 1025mB
0:00 886m -11°C -11_0 0cm 1% 0mph 1mph 1025mB
3:00 866m -11°C -11_1 0cm 51% 1mph 2mph 1025mB
6:00 842m -12°C -12_1 0cm 71% 1mph 2mph 1026mB
9:00 1911m -12°C -12_2 0cm 88% 2mph 2mph 1026mB
12:00 2244m -2°C -2_3 0cm 92% 3mph 4mph 1025mB
15:00 2194m -2°C -2_5 0cm 100% 5mph 6mph 1024mB
18:00 1218m -2°C -2_3 0cm 100% 3mph 4mph 1027mB
21:00 1126m -10°C -10_1 0cm 87% 1mph 2mph 1028mB
0:00 1157m -10°C -10_1 0cm 89% 1mph 2mph 1028mB
3:00 1127m -10°C -10_1 0cm 90% 1mph 2mph 1029mB
6:00 1128m -10°C -10_1 0cm 92% 1mph 2mph 1029mB
9:00 2121m -10°C -10_1 0cm 97% 1mph 2mph 1029mB
12:00 2412m -1°C -1_2 0cm 97% 2mph 2mph 1028mB
15:00 2368m -1°C -1_4 0cm 99% 4mph 4mph 1027mB
18:00 1596m -1°C -1_4 0cm 99% 4mph 4mph 1029mB
21:00 1580m -7°C -7_3 0cm 97% 3mph 4mph 1030mB
0:00 1495m -7°C -7_4 0cm 61% 4mph 5mph 1030mB
3:00 1476m -8°C -8_5 0cm 8% 5mph 5mph 1029mB
6:00 1374m -8°C -8_5 0cm 37% 5mph 5mph 1030mB
9:00 2217m -8°C -8_4 0cm 0% 4mph 4mph 1028mB
12:00 2588m 0°C 0_3 0cm 0% 3mph 4mph 1026mB
15:00 2517m 0°C 0_5 0cm 0% 5mph 6mph 1025mB
18:00 1607m 0°C 0_1 0cm 0% 1mph 1mph 1027mB
21:00 1566m -7°C -7_8 0cm 0% 8mph 9mph 1029mB
0:00 1483m -7°C -7_8 0cm 0% 8mph 9mph 1031mB
3:00 1416m -8°C -8_5 0cm 7% 5mph 6mph 1031mB
6:00 1379m -8°C -8_2 0cm 6% 2mph 4mph 1032mB
9:00 2119m -8°C -8_3 0cm 0% 3mph 3mph 1033mB
12:00 2380m -2°C -2_3 0cm 0% 3mph 3mph 1032mB
15:00 2378m -1°C -1_2 0cm 2% 2mph 2mph 1031mB
18:00 1919m -1°C -1_5 0cm 18% 5mph 6mph 1034mB
21:00 1867m -5°C -5_8 1cm 79% 8mph 9mph 1036mB
0:00 1823m -5°C -5_8 1cm 81% 8mph 9mph 1037mB
3:00 1725m -6°C -6_7 1cm 82% 7mph 8mph 1038mB
6:00 1518m -7°C -7_6 1cm 79% 6mph 7mph 1038mB
9:00 2146m -8°C -8_6 0cm 52% 6mph 7mph 1038mB
12:00 2631m 0°C 0_5 0cm 26% 5mph 5mph 1037mB
15:00 2697m 1°C 1_2 0cm 0% 2mph 2mph 1035mB
18:00 2110m 1°C 1_3 0cm 0% 3mph 4mph 1036mB
21:00 1980m -2°C -2_2 0cm 0% 2mph 2mph 1037mB
0:00 2002m -2°C -2_3 0cm 0% 3mph 3mph 1036mB
3:00 1916m -3°C -3_3 0cm 0% 3mph 3mph 1036mB
6:00 1830m -3°C -3_2 0cm 0% 2mph 2mph 1036mB
9:00 3624m -3°C -3_1 0cm 0% 1mph 2mph 1035mB
12:00 3624m 4°C 4_3 0cm 0% 3mph 3mph 1033mB
15:00 3601m 5°C 5_4 0cm 0% 4mph 4mph 1031mB
18:00 2041m 5°C 5_2 0cm 0% 2mph 2mph 1032mB
21:00 2036m -2°C -2_3 0cm 0% 3mph 3mph 1032mB
0:00 2066m -2°C -2_4 0cm 0% 4mph 4mph 1031mB
3:00 2048m -2°C -2_4 0cm 0% 4mph 5mph 1029mB
6:00 1994m -2°C -2_5 0cm 0% 5mph 5mph 1029mB
9:00 3233m -2°C -2_5 0cm 0% 5mph 5mph 1028mB
12:00 3240m 6°C 6_1 0cm 0% 1mph 2mph 1027mB
15:00 3131m 6°C 6_2 0cm 0% 2mph 3mph 1026mB
18:00 2125m 6°C 6_3 0cm 0% 3mph 3mph 1028mB
21:00 2095m -1°C -1_4 0cm 0% 4mph 4mph 1029mB
0:00 2112m -1°C -1_4 0cm 0% 4mph 5mph 1030mB
3:00 2059m -1°C -1_5 0cm 0% 5mph 6mph 1030mB
6:00 1962m -2°C -2_6 0cm 0% 6mph 7mph 1032mB
Afternoon 0mm 0 2380m 5°C 5_1 0cm 0% 1mph 2mph 1032mB
Morning 0mm 0 1586m -2°C -2_3 0cm 0% 3mph 4mph 1033mB
Afternoon 0mm 0 2635m 5°C 5_4 0cm 11% 4mph 5mph 1031mB
Morning 0mm 0 1798m -1°C -1_4 0cm 0% 4mph 5mph 1030mB
Afternoon 0mm 0 2317m 5°C 5_2 0cm 0% 2mph 3mph 1029mB
Morning 0mm 0 1551m -2°C -2_3 0cm 0% 3mph 3mph 1033mB
Afternoon 0mm 0 2124m 4°C 4_4 0cm 0% 4mph 5mph 1034mB
Morning 0mm 0 1722m -1°C -1_6 0cm 31% 6mph 6mph 1036mB
Afternoon 0.0104167mm 0 2291m 4°C 4_1 0cm 58% 1mph 2mph 1034mB
Morning 0mm 0 1621m -2°C -2_4 0cm 35% 4mph 5mph 1033mB
Afternoon 0mm 0 1684m 4°C 4_4 0cm 2% 4mph 5mph 1028mB
Morning 0mm 0 1315m -4°C -4_4 0cm 6% 4mph 6mph 1027mB

16 day outlook at a glance

Forecast issued: 2/17/2019 2:16:47 PM

Chat

Your comments and questions. In a resort? Let us know what it's like!


Characters left 250

For terms and conditions see Readers Comments on the Cookie and privacy policy page.